Regional Weather Roundup
Issued by NWS Binghamton, NY

Home | Current Version | Previous Version | Text Only | Print | Product List | Glossary On
Versions: 1 2 3 4 5 6 7 8 9 10 11 12 13 14 15 16 17 18 19 20 21 22 23 24 25 26 27 28 29 30 31 32 33 34 35 36 37 38 39 40 41 42 43 44 45 46 47 48
000
ASUS41 KBGM 020710
RWRBGM
RWRBGM
BINGHAMTON REGIONAL WEATHER ROUNDUP
NATIONAL WEATHER SERVICE BINGHAMTON NY
200 AM EST MON MAR 02 2015

Note: "fair" indicates few or no clouds below 12,000 feet with no
significant weather and/or obstructions to visibility.

* = Station(s) that does not report precipitation, such as rain,
snow, etc, also no thunder or fog.

!NYZ009-015>018-022>025-036-037-044>046-055>057-062-020800
...CENTRAL NEW YORK...

CITY           SKY/WX    TMP DP  RH WIND       PRES   REMARKS
BINGHAMTON     MIX PCPN  23  21  92 W5        30.01R FOG     WCI  17
CORTLAND       LGT SNOW  27  27 100 CALM      30.06R
DANSVILLE      CLOUDY    26  20  77 NW9       30.12R WCI  17
ELMIRA         CLOUDY    24  24 100 CALM      30.06R FOG
ITHACA         FLURRIES  24  22  92 CALM      30.07R
MONTICELLO     CLOUDY    19  19 100 CALM      30.02F
NORWICH        FLURRIES  23  21  93 CALM      30.05F
ONEONTA        MOCLDY    21  21 100 W6        29.99S WCI  14
PENN YAN       LGT SNOW  27  22  81 W6        30.07S WCI  20
ROME           LGT SNOW  22  21  96 CALM      30.08F FOG
SIDNEY         CLOUDY    25  25 100 W3        30.04S
SYRACUSE       LGT SNOW  21  20  98 W12       30.08S FOG     WCI   9
$$

!PAZ038>040-043-044-047-048-072-020800
...NORTHEAST PENNSYLVANIA...

CITY           SKY/WX    TMP DP  RH WIND       PRES   REMARKS
HAZLETON       CLOUDY    27  23  86 E3        30.05F FOG
SCRANTON       LGT SNOW  26  21  81 SW6       30.06S WCI  19
TOWANDA*       MOCLDY    27  23  86 CALM      30.08S
$$
&&
KEY
WCI = WIND CHILL INDEX
VSB = VISIBILITY
HX  = HEAT INDEX
$$



USA.gov is the U.S. government's official web portal to all federal, state and local government web resources and services.